Rbgn^[z[y[W
メイン
   新天体発見情報
     Comet P/2005 XR132 (Spacewatch)
投稿するにはまず登録を

スレッド表示 | 古いものから 前のトピック | 次のトピック | 下へ
投稿者 スレッド
佐藤裕久
投稿日時: 2024-3-1 13:00
モデレータ
登録日: 2005-6-12
居住地: 日本
投稿: 2687
オンライン
Comet P/2005 XR132 (Spacewatch)

小惑星センターの "isolated tracklet file "に4つの別々の日付で、4回発見された小惑星状天体が、
数年前に2005 XR132と符号がつけられた(2020年7月28日付のMPS 1209835、2020年8月7日付のMPC 
123589を参照)。
P. Veres (小惑星センター)から中央局への連絡によると、Y.-C. Chengが2021年4月6日にMPCに
2005 XR132の彗星活動を報告した。台湾にあるLulin 1-m望遠鏡で、2021年4月5.6日UTに得た、4枚の
480-秒Rバンド画像に、反太陽方向にp.a. 30-60°にわたる扇形の尾が見えた。全光度は約19.8等。
また、M. Kelleyは、2021年4月14日にMPCに、2021年2月8.5日ねPalomarにある1.2-m Schmidt望遠鏡
で得た画像から、頭部は恒星状に見えたが、p.a.290-335°にわたってにまっすぐな10 "の尾がある
と報告した。彼は、Palomarの追加観測を、2021年2月10.4日、p.a. 285-320°に7"の尾があると報告
した。
Chengがオンラインで観測を発表した後、他の観測者たちが彗星の活動を確認した。
L. Buzzi (Varese, イタリア)は、2021年4月7.9日UT、0.84-m f/3.5 反射望遠鏡で得た30-秒CCD露出
100枚のスタックから、p.a. 36゜に7"の短い尾がある。佐藤英貴氏(東京都文京区, 2021年4月11.4日、
60-秒CCD露出12枚のスタック, 0.51-m f/6.8 アストログラフ, Siding Spring, NSW, オーストラリア, 
遠隔操作: 強く集光した8"のコマが見え、北に尾の気配がある。6".6の円形範囲で測定した光度は
19.0等であった。

彗星機能の報告は次のとおり、

OC   Date        Reporter           Coma    Tail    PA          Exposures
I41  2021-02-08  M. Kelley          4".7     10"    290-335
I41  2021-02-10  M. Kelley          4".8      7"    285-320
Q62  2021-04-11  H. Sato            8"        5"    330          12x60s
H01  2021-04-10  W. Ryan            7"       20"    310-330

発見位置は次のとおり、

     2005 UT             R.A. (2000) Decl.       Mag.
     Dec.  5.46865    7 11 13.16   +20 52 32.1   20.5
           5.48601    7 11 12.66   +20 52 24.8   20.6
           5.50339    7 11 12.21   +20 52 17.6   20.6
          27.22516    6 55 48.38   +18 16 12.2
          27.24250    6 55 47.38   +18 16 04.7
          27.25982    6 55 46.39   +18 15 57.1

     2012 UT             R.A. (2000) Decl.       Mag.
     Nov. 13.25945    4 33 53.41   +29 55 25.8   21.7
          13.27744    4 33 52.56   +29 55 21.6   21.5
          13.29884    4 33 51.60   +29 55 15.3   21.5
          22.26242    4 26 25.11   +29 10 17.8   21.3
          22.28011    4 26 24.20   +29 10 11.8   20.7
          22.29779    4 26 23.16   +29 10 05.8   21.1

MPCの楕円軌道要素、位置推算表は次のとおり、

Orbital elements:
    P/2005 XR132 (Spacewatch)                                                   
Epoch 2024 Mar. 31.0 TT = JDT 2460400.5                                         
T 2020 Nov. 26.77217 TT                                 Rudenko                 
q   2.1335893            (2000.0)            P               Q                  
n   0.13525855     Peri.  240.76832     -0.80304692     -0.54132595             
a   3.7586011      Node   265.39835     +0.59556465     -0.71470083             
e   0.4323448      Incl.   14.47562     +0.02045469     -0.44290963             
P   7.29                                                                        
From 111 observations 2005 Dec. 5-2021 May 14, mean residual 0".4.              
                                                                                
Ephemeris:
Date    TT    R. A. (2000) Decl.     Delta      r    Elong.  Phase   m1
2024 01 30    20 55 13.1 -07 35 58   6.2838  5.3185    10.5     1.9  27.2
...
2024 02 14    21 07 11.6 -06 34 27   6.2916  5.3294    11.9     2.2  27.3
...
2024 02 22    21 13 25.9 -05 59 09   6.2751  5.3348    16.6     3.0  27.3
...
2024 02 28    21 18 00.5 -05 31 45   6.2535  5.3387    20.7     3.8  27.3
2024 02 29    21 18 45.6 -05 27 07   6.2492  5.3393    21.4     3.9  27.3
2024 03 01    21 19 30.6 -05 22 27   6.2446  5.3399    22.1     4.0  27.3
...
2024 03 07    21 23 56.3 -04 54 09   6.2128  5.3436    26.6     4.8  27.2
...
2024 03 15    21 29 37.9 -04 15 37   6.1589  5.3482    32.6     5.8  27.2
...
2024 03 30    21 39 30.3 -03 01 53   6.0253  5.3561    44.3     7.5  27.2

(MPEC 2024-D135、CBET 5360)

スレッド表示 | 古いものから 前のトピック | 次のトピック | トップ

投稿するにはまず登録を
 
© 1999 Tsutomu Seki.